Temp
-13 -13 -13 -13 -12 -12 -13 -12 -13 -13 -13 -13 -13 -14 -15 -15 -15 -13 -13 -13 -13 -13 -13 -13 -13 -13 -13 -13 -13 -13 -13 -13 -13 -13 -13 -13 -14 -14
-13 -13 -13 -13 -13 -13 -13 -13 -13 -13 -14 -14 -14 -15 -14 -14 -13 -13 -13 -13 -13 -13 -13 -13 -13 -13 -13 -13 -13 -13 -13 -13 -13 -13 -13 -14 -14 -14
-13 -13 -13 -14 -14 -13 -13 -13 -13 -14 -14 -14 -14 -14 -13 -13 -13 -13 -13 -13 -13 -13 -13 -13 -13 -13 -13 -13 -13 -13 -13 -14 -14 -14 -14 -14 -14 -14
-14 -14 -14 -14 -14 -13 -13 -15 -15 -14 -13 -13 -13 -13 -13 -13 -13 -13 -13 -13 -13 -13 -13 -13 -13 -13 -13 -13 -14 -14 -14 -14 -14 -15 -15 -15 -15 -15
-14 -14 -14 -15 -14 -14 -15 -15 -14 -14 -13 -13 -13 -13 -13 -13 -13 -13 -13 -13 -13 -13 -13 -13 -14 -14 -14 -14 -14 -14 -14 -15 -15 -15 -15 -15 -16 -15
-16 -16 -15 -15 -14 -14 -14 -14 -14 -14 -13 -13 -13 -13 -13 -13 -13 -13 -13 -13 -13 -13 -13 -13 -14 -14 -14 -14 -15 -15 -15 -15 -16 -15 -16 -16 -16 -17
-15 -14 -14 -14 -14 -14 -14 -14 -14 -14 -14 -14 -13 -13 -13 -13 -13 -13 -13 -13 -13 -13 -13 -14 -14 -14 -14 -15 -15 -15 -15 -15 -16 -16 -16 -17 -18 -18
-14 -14 -14 -14 -14 -14 -14 -14 -14 -14 -14 -14 -14 -13 -13 -13 -13 -13 -13 -13 -13 -13 -13 -13 -15 -15 -15 -15 -15 -15 -15 -15 -15 -16 -17 -18 -19 -20
-14 -14 -14 -14 -14 -14 -14 -14 -14 -14 -14 -13 -13 -14 -13 -13 -13 -13 -13 -13 -13 -13 -13 -13 -14 -14 -15 -15 -15 -15 -15 -15 -16 -17 -20 -20 -20 -20
-14 -14 -14 -14 -14 -14 -14 -14 -14 -14 -14 -14 -14 -13 -13 -13 -14 -13 -13 -13 -13 -14 -14 -13 -14 -14 -15 -15 -15 -15 -15 -16 -18 -21 -22 -21 -21 -21
-14 -14 -14 -14 -14 -15 -15 -14 -15 -15 -15 -15 -14 -14 -14 -14 -14 -13 -13 -13 -13 -14 -14 -14 -15 -15 -15 -15 -15 -16 -18 -23 -24 -23 -22 -21 -21 -20
-15 -15 -15 -15 -15 -15 -15 -15 -15 -15 -15 -15 -15 -15 -15 -14 -14 -14 -14 -13 -14 -14 -16 -15 -16 -15 -15 -16 -18 -22 -24 -25 -24 -23 -22 -22 -21 -21
-15 -15 -15 -15 -15 -15 -15 -15 -15 -15 -15 -15 -15 -15 -15 -15 -14 -14 -14 -14 -15 -16 -16 -16 -16 -16 -16 -19 -24 -26 -26 -26 -25 -24 -23 -22 -22 -22
-15 -15 -15 -15 -15 -15 -15 -15 -15 -15 -15 -15 -15 -16 -15 -15 -15 -15 -16 -16 -16 -16 -16 -16 -16 -18 -22 -25 -26 -26 -26 -25 -25 -24 -23 -22 -22 -22
-15 -16 -16 -16 -16 -16 -16 -16 -16 -16 -16 -16 -16 -16 -16 -16 -16 -16 -17 -17 -17 -17 -17 -17 -20 -24 -25 -26 -26 -26 -25 -25 -24 -23 -22 -22 -22 -22
-17 -17 -17 -17 -17 -17 -17 -16 -16 -17 -17 -17 -17 -17 -17 -17 -18 -18 -18 -18 -17 -17 -18 -21 -24 -26 -26 -26 -26 -25 -24 -23 -23 -22 -22 -22 -22 -22
-17 -17 -17 -17 -17 -17 -18 -18 -17 -18 -17 -18 -18 -18 -19 -19 -19 -19 -18 -18 -18 -20 -22 -25 -26 -27 -26 -26 -25 -24 -24 -24 -23 -23 -22 -22 -21 -22
-18 -18 -18 -18 -18 -19 -19 -19 -18 -18 -18 -18 -19 -19 -20 -20 -19 -19 -19 -20 -21 -24 -26 -27 -27 -27 -26 -26 -25 -24 -24 -24 -23 -23 -22 -22 -22 -22
-19 -20 -20 -20 -20 -20 -20 -20 -20 -20 -20 -20 -20 -20 -20 -20 -20 -19 -21 -23 -25 -27 -27 -27 -27 -26 -26 -25 -25 -25 -23 -23 -22 -22 -22 -23 -22 -22
-21 -21 -21 -21 -21 -21 -21 -21 -21 -22 -22 -22 -21 -21 -21 -20 -21 -21 -24 -26 -27 -28 -27 -27 -27 -26 -25 -25 -25 -24 -23 -22 -22 -22 -23 -22 -22 -22
-22 -22 -22 -22 -22 -22 -22 -22 -22 -22 -22 -22 -22 -22 -21 -21 -23 -24 -27 -28 -28 -28 -27 -27 -27 -26 -26 -25 -25 -24 -23 -22 -22 -22 -22 -23 -23 -22
-23 -23 -23 -23 -23 -23 -23 -23 -23 -22 -23 -22 -23 -22 -22 -23 -25 -27 -28 -28 -28 -28 -27 -27 -27 -26 -26 -25 -25 -24 -24 -23 -23 -23 -22 -23 -23 -23
-24 -24 -24 -23 -23 -23 -23 -23 -23 -23 -22 -23 -23 -23 -24 -26 -27 -28 -28 -28 -27 -27 -27 -26 -26 -26 -25 -25 -25 -24 -24 -23 -23 -23 -23 -23 -23 -23
Height
5705 5706 5708 5708 5710 5710 5709 5708 5707 5706 5707 5706 5706 5704 5704 5705 5706 5706 5705 5704 5703 5703 5702 5700 5698 5696 5694 5692 5690 5688 5687 5685 5683 5681 5679 5678 5676 5675
5694 5695 5697 5698 5699 5700 5699 5699 5698 5697 5699 5699 5698 5699 5700 5699 5698 5697 5695 5694 5693 5692 5690 5688 5686 5684 5682 5679 5677 5675 5672 5670 5668 5666 5665 5663 5661 5660
5684 5685 5686 5689 5690 5690 5688 5688 5688 5689 5691 5693 5693 5694 5693 5692 5690 5688 5686 5684 5683 5681 5678 5675 5672 5670 5667 5664 5662 5659 5657 5654 5652 5649 5647 5646 5646 5646
5675 5676 5677 5678 5679 5680 5679 5680 5682 5683 5684 5685 5685 5685 5684 5683 5681 5678 5675 5673 5670 5666 5663 5660 5656 5653 5650 5647 5644 5640 5638 5636 5634 5632 5629 5629 5629 5629
5666 5668 5668 5668 5669 5671 5672 5675 5676 5675 5675 5674 5674 5672 5671 5669 5668 5665 5661 5658 5654 5650 5646 5642 5638 5634 5629 5626 5622 5620 5616 5614 5612 5610 5609 5608 5609 5610
5660 5663 5664 5665 5667 5668 5669 5669 5668 5667 5666 5664 5662 5660 5657 5655 5651 5648 5646 5641 5637 5632 5627 5623 5618 5612 5608 5605 5601 5597 5593 5590 5588 5587 5586 5586 5588 5590
5659 5661 5661 5662 5662 5662 5661 5660 5658 5656 5654 5652 5649 5646 5642 5638 5634 5630 5626 5623 5619 5613 5608 5602 5595 5591 5586 5582 5577 5573 5570 5567 5564 5562 5562 5562 5565 5568
5656 5655 5655 5655 5654 5653 5651 5649 5647 5644 5642 5638 5635 5631 5626 5622 5618 5613 5608 5604 5601 5593 5587 5583 5574 5568 5563 5557 5553 5548 5546 5542 5538 5535 5536 5538 5542 5546
5650 5649 5648 5647 5644 5642 5640 5638 5635 5631 5627 5624 5619 5613 5608 5603 5599 5594 5588 5582 5577 5571 5563 5558 5551 5546 5540 5533 5527 5521 5517 5512 5507 5507 5506 5512 5519 5524
5643 5640 5638 5636 5634 5632 5629 5625 5621 5617 5612 5607 5601 5594 5587 5582 5577 5573 5568 5562 5556 5548 5538 5534 5528 5523 5516 5507 5499 5492 5484 5476 5473 5474 5483 5493 5500 5506
5632 5629 5627 5624 5621 5619 5616 5612 5608 5602 5596 5589 5581 5574 5569 5564 5558 5553 5546 5540 5534 5526 5516 5512 5504 5499 5492 5483 5469 5458 5451 5447 5450 5457 5468 5477 5483 5491
5620 5617 5614 5610 5607 5604 5600 5596 5592 5586 5579 5572 5565 5558 5551 5545 5537 5530 5524 5518 5511 5507 5496 5491 5481 5472 5470 5456 5440 5431 5430 5435 5441 5447 5453 5463 5471 5482
5606 5603 5600 5596 5592 5588 5583 5578 5573 5568 5562 5555 5548 5540 5532 5524 5517 5509 5501 5494 5488 5480 5472 5466 5459 5447 5436 5429 5422 5418 5420 5425 5432 5438 5445 5452 5462 5471
5592 5588 5584 5579 5575 5570 5564 5558 5553 5548 5543 5537 5530 5522 5514 5505 5496 5488 5479 5472 5465 5460 5450 5441 5435 5425 5417 5414 5413 5413 5415 5419 5425 5431 5438 5446 5453 5461
5576 5572 5567 5562 5556 5551 5545 5539 5534 5529 5524 5517 5510 5502 5494 5486 5478 5470 5460 5453 5444 5437 5429 5422 5415 5411 5409 5409 5408 5409 5411 5415 5421 5426 5434 5442 5448 5456
5560 5555 5550 5545 5539 5533 5527 5521 5514 5508 5503 5497 5489 5481 5472 5464 5457 5450 5441 5432 5425 5419 5413 5407 5405 5404 5404 5405 5404 5405 5408 5412 5417 5423 5430 5437 5443 5451
5542 5537 5532 5527 5521 5514 5507 5500 5494 5488 5481 5475 5468 5459 5451 5444 5437 5432 5424 5417 5411 5404 5400 5398 5397 5398 5399 5401 5402 5403 5406 5410 5415 5420 5426 5432 5439 5446
5525 5519 5512 5507 5501 5496 5489 5482 5473 5468 5461 5454 5448 5442 5434 5428 5422 5415 5408 5401 5396 5392 5390 5391 5393 5394 5395 5398 5399 5401 5403 5407 5412 5418 5423 5431 5437 5444
5508 5501 5494 5489 5482 5476 5469 5462 5454 5448 5442 5435 5428 5424 5419 5412 5406 5399 5392 5387 5385 5384 5384 5386 5389 5390 5392 5394 5395 5398 5402 5405 5410 5416 5422 5430 5437 5443
5489 5482 5476 5470 5465 5458 5450 5443 5435 5429 5423 5418 5411 5407 5402 5395 5388 5384 5379 5377 5377 5377 5378 5381 5385 5386 5389 5391 5393 5396 5399 5404 5410 5415 5422 5430 5437 5443
5469 5463 5458 5452 5446 5439 5431 5424 5418 5412 5407 5402 5395 5390 5386 5379 5375 5371 5369 5370 5370 5371 5373 5376 5380 5382 5384 5387 5390 5391 5395 5400 5407 5414 5421 5428 5435 5440
5451 5446 5440 5435 5428 5421 5414 5408 5402 5396 5392 5386 5381 5376 5372 5367 5364 5362 5362 5364 5365 5366 5369 5373 5376 5378 5381 5384 5387 5389 5391 5396 5404 5412 5420 5426 5433 5438
5435 5430 5424 5418 5412 5405 5400 5394 5388 5383 5378 5373 5369 5364 5360 5357 5356 5356 5358 5358 5360 5361 5364 5369 5372 5374 5377 5380 5384 5388 5391 5395 5402 5408 5417 5424 5430 5436
Wind_Speed
51 51 49 54 46 42 41 37 33 31 33 32 30 25 16 18 17 21 26 28 29 31 34 35 36 38 40 41 42 43 44 44 44 45 43 41 39 38
47 46 45 47 42 38 35 33 32 31 34 27 21 14 19 21 25 30 31 34 36 37 39 41 43 45 47 49 50 50 51 50 51 51 50 48 47 45
40 39 40 34 36 33 35 36 31 34 17 11 12 21 26 29 32 35 37 40 42 45 48 51 51 51 52 54 56 57 59 59 58 56 55 54 52 51
33 31 35 35 37 36 41 12 11 13 16 21 23 26 29 33 36 38 42 45 48 51 53 54 56 59 59 60 61 62 63 64 61 60 60 58 56 55
25 27 18 12 19 20 7 10 17 24 26 27 31 34 36 38 40 44 48 52 55 56 58 60 61 63 64 66 67 68 68 67 66 67 65 65 63 62
5 2 5 10 16 19 21 24 27 30 32 36 39 39 42 46 51 55 54 55 56 59 60 61 64 66 68 68 69 69 70 71 71 71 72 72 70 66
13 15 18 19 22 24 27 29 31 35 39 41 43 46 50 55 58 56 57 56 56 59 62 65 68 69 70 70 70 70 71 74 76 77 77 76 73 61
18 20 22 25 27 29 31 33 37 40 42 46 50 52 55 58 59 58 60 61 62 65 66 66 68 69 70 71 73 75 77 79 80 81 79 76 65 67
24 26 28 30 32 33 36 39 43 46 49 52 55 58 60 62 63 64 66 67 68 69 70 71 71 72 73 75 78 80 83 86 85 80 76 71 64 62
31 33 35 36 37 38 41 45 49 52 55 58 60 61 63 65 66 68 69 71 71 72 72 73 74 75 76 79 83 88 91 89 82 67 56 50 48 51
36 39 41 42 44 45 48 50 53 57 60 62 64 65 65 68 69 70 73 75 75 74 74 75 75 75 77 82 89 89 75 54 32 36 38 36 33 36
42 43 44 47 50 53 54 56 58 61 63 64 65 66 67 69 71 73 75 76 77 75 73 73 74 78 80 85 76 56 40 29 32 44 53 42 32 33
47 48 50 53 55 58 60 62 64 67 67 68 69 69 71 74 76 77 78 76 74 71 71 72 75 81 82 65 37 32 30 32 27 41 42 36 38 35
51 53 56 59 61 64 66 68 69 71 72 74 73 72 74 76 77 78 76 73 70 68 71 76 77 71 49 23 20 23 17 20 37 28 26 41 38 35
57 59 61 63 65 67 68 70 73 75 77 75 76 78 80 81 78 75 72 67 67 68 71 73 61 39 24 19 12 17 22 16 18 31 26 31 27 23
60 62 63 64 67 70 73 75 76 76 77 78 79 81 81 78 73 68 64 63 64 65 64 53 36 24 20 14 12 9 17 20 17 26 32 29 29 25
63 64 65 68 70 71 72 72 73 74 74 75 77 73 69 66 64 62 61 60 60 56 47 30 25 21 19 16 12 11 16 16 10 11 21 23 29 29
61 63 66 68 69 70 69 69 70 70 70 71 67 64 59 58 58 58 56 52 46 36 27 21 17 15 16 13 15 15 16 14 15 12 22 23 21 23
63 66 68 68 69 69 68 68 69 70 66 60 56 57 55 53 54 54 48 37 29 24 21 21 17 17 17 13 15 14 17 18 19 21 21 18 23 21
64 64 65 65 67 68 69 68 64 60 57 55 51 52 51 50 48 45 34 25 21 16 15 18 14 15 22 15 10 15 17 27 31 33 25 23 22 20
61 62 62 64 68 66 64 62 58 55 52 52 49 48 48 44 39 31 23 19 15 12 11 16 16 17 19 17 10 11 21 29 31 33 34 26 23 22
58 60 63 64 60 61 60 56 52 51 51 47 45 45 43 37 27 20 16 14 12 10 10 12 16 16 18 17 12 5 16 28 36 29 28 26 24 20
58 61 60 58 57 55 52 48 47 48 45 42 42 39 34 24 18 14 12 12 12 14 12 11 16 16 19 20 17 11 12 26 35 30 25 25 22 20
Wind_Direction
261 265 269 271 275 270 270 277 281 273 272 283 270 260 268 275 281 280 276 281 282 282 283 285 286 285 285 286 287 289 289 289 289 289 289 287 287 286
265 266 267 266 264 259 265 271 278 278 266 268 266 280 284 281 278 279 282 285 285 286 288 290 289 288 288 287 286 284 284 284 284 283 284 282 281 282
263 260 259 257 259 265 261 268 269 271 248 238 266 272 272 277 282 285 285 288 289 290 290 290 290 289 288 288 288 286 284 282 281 279 278 277 278 278
266 261 263 260 263 260 259 241 261 283 287 275 276 276 280 282 284 286 289 289 290 290 290 289 289 289 288 287 285 285 283 281 279 277 275 273 273 273
244 250 257 259 266 259 276 277 268 269 275 281 286 289 289 287 288 289 290 291 292 292 291 289 288 287 287 285 284 284 283 281 278 275 272 271 269 267
147 252 253 264 266 264 267 270 272 273 279 285 286 288 291 293 295 295 294 291 290 290 290 289 287 287 287 287 284 282 280 279 276 275 272 271 270 269
248 255 261 268 271 274 276 279 283 285 287 289 290 293 296 297 297 295 294 294 294 293 292 291 291 289 288 286 284 282 280 278 276 274 271 269 268 266
264 268 273 276 279 283 287 289 290 291 293 295 296 296 295 296 296 297 297 295 295 295 294 293 291 291 290 288 287 285 284 281 277 273 269 266 252 254
280 282 283 285 287 290 292 294 294 296 298 299 299 298 298 295 293 295 298 297 297 296 296 298 295 294 292 290 289 287 286 284 279 271 262 261 261 258
286 288 290 288 288 291 293 294 297 299 300 299 299 300 302 300 299 298 298 298 298 297 297 297 295 294 294 294 293 291 289 283 274 266 259 250 251 248
291 291 291 292 292 292 292 294 297 299 300 300 300 300 299 298 299 300 300 301 299 298 297 296 294 296 297 297 294 292 284 274 258 227 233 226 229 233
289 288 288 289 289 290 293 295 296 297 299 300 298 296 297 299 301 303 303 302 300 298 296 297 298 299 300 300 297 282 271 233 245 236 233 240 219 231
290 290 290 289 289 291 293 295 298 299 298 298 296 295 297 301 304 305 303 301 299 299 298 300 301 302 303 303 280 264 256 223 260 235 225 224 243 230
290 289 289 290 291 293 295 297 298 298 298 298 296 295 298 302 306 304 300 299 299 300 302 303 304 305 302 276 269 252 249 229 242 234 235 235 236 228
290 290 291 292 294 295 296 297 298 298 298 296 295 296 299 301 302 300 298 299 301 303 304 304 304 297 270 253 271 252 252 212 230 231 224 218 207 210
291 293 294 295 295 296 297 297 298 298 296 296 297 298 299 300 297 296 297 300 302 302 303 302 293 273 236 250 246 250 227 203 213 226 226 219 226 216
294 294 295 296 297 298 299 299 299 299 300 300 300 300 300 299 299 299 301 302 302 303 299 287 271 255 245 236 231 229 237 227 213 196 208 210 218 219
293 293 294 295 295 297 300 300 298 297 297 297 299 300 299 299 299 301 302 301 301 294 284 263 256 249 241 229 228 224 222 213 229 215 186 192 204 202
292 291 293 296 299 303 303 300 299 298 300 298 298 298 297 299 301 301 300 297 287 278 270 244 255 245 218 226 214 220 210 209 216 192 174 197 204 207
292 294 295 298 300 299 299 301 301 299 299 299 300 298 300 301 302 300 296 286 272 273 267 245 245 235 222 234 227 209 209 203 195 195 180 189 192 199
294 295 296 296 299 303 304 302 301 301 300 299 301 303 303 303 300 295 286 275 263 258 263 234 241 234 229 231 219 224 211 191 191 198 197 201 203 195
294 295 296 301 302 302 303 303 301 301 302 303 304 304 303 301 295 288 276 261 251 239 241 240 240 228 222 204 211 197 193 188 192 196 191 187 188 192
295 299 300 300 302 304 302 301 303 304 303 306 302 302 301 297 288 277 260 248 241 220 210 229 213 223 225 217 218 217 174 184 187 175 178 182 186 188